Regional Weather Roundup
Issued by NWS

Home | Current Version | Previous Version | Graphics & Text | Print | Product List | Glossary On
Versions: 1 2 3 4 5 6 7 8 9 10 11 12 13 14 15 16 17 18 19 20 21 22 23 24 25 26 27 28 29 30 31 32 33 34 35 36 37 38 39 40 41 42 43 44 45 46 47 48 49 50
000
ASUS43 KLOT 012200
RWRIL

ILLINOIS REGIONAL WEATHER ROUNDUP
NATIONAL WEATHER SERVICE CHICAGO/ROMEOVILLE IL
500 PM CDT WED JUL 01 2015

NOTE: "FAIR" INDICATES FEW OR NO CLOUDS BELOW 12,000 FEET WITH NO
SIGNIFICANT WEATHER AND/OR OBSTRUCTIONS TO VISIBILITY.

* THESE STATIONS ARE NOT UNDER NWS QUALITY CONTROL. THEY ALSO MAY NOT
  REPORT WEATHER SUCH AS PRECIPITATION OR FOG.

ILZ001-002-007-009-015-016-024-012300-
NORTHWEST ILLINOIS

CITY           SKY/WX    TMP DP  RH WIND       PRES   REMARKS
MOLINE         PTSUNNY   74  60  61 E8        29.92F
STERLING*      PTSUNNY   73  57  56 N6        29.94S
$$

ILZ003-004-008-010-011-017-018-012300-
NORTH CENTRAL ILLINOIS

CITY           SKY/WX    TMP DP  RH WIND       PRES   REMARKS
ROCKFORD       PTSUNNY   73  51  46 N12       29.97R
$$

ILZ005-006-012>014-019>023-012300-
NORTHEAST ILLINOIS

CITY           SKY/WX    TMP DP  RH WIND       PRES   REMARKS
CHICAGO-OHARE  PTSUNNY   62  51  67 E10       29.96S
CHICAGO-MIDWAY CLOUDY    63  51  65 E12       29.96S
AURORA         MOSUNNY   72  52  49 NE5       29.94S
WAUKEGAN       PTSUNNY   57  50  77 NE8       29.98R
DUPAGE AIRPORT PTSUNNY   67  54  63 E13       29.94R
WHEELING       CLOUDY    60  50  69 NE8       29.99R
NORTHERLY ISL    N/A     59  51  75 NE10        N/A
$$

LMZ740>746-012300-
SOUTHERN LAKE MICHIGAN

STATION/POSITION SKY/WX   TEMP    WIND        PRES    VSBY  WAVE
                          AIR SEA DIR/SP/G                  HT/PER
                          (F)     (DEG/KT/KT) (MB)    (MI)  (FT/S)
HARRISON CRIB              56      60/ 10/ 12   N/A
BURNHAM HARBOR             59      60/  9/ 11   N/A
CALUMET HARBOR             59      30/  9/ 11   N/A
BURNS HARBOR               60      50/ 12/ 14 1015.6S
MICHIGAN CITY              57      10/ 12/ 13   N/A
MICHIGAN CITY 6N           58 65   40/ 10/ 14   N/A           3/ 5
ST. JOSEPH                 58 63                N/A           3/ 5
$$

ILZ025>027-034>036-040-047-049-050-058-095>099-012300-
WEST-CENTRAL ILLINOIS

CITY           SKY/WX    TMP DP  RH WIND       PRES   REMARKS
QUINCY         PTSUNNY   80  69  69 NE7       29.86S HX  83
$$

ILZ028>032-037-038-041>044-048-051>054-059>061-012300-
CENTRAL ILLINOIS

CITY           SKY/WX    TMP DP  RH WIND       PRES   REMARKS
DECATUR        PTSUNNY   76  68  76 NE7       29.88S
PEORIA         CLOUDY    78  65  63 VRB7      29.90F HX  80
SPRINGFIELD    LGT RAIN  79  70  74 NE10      29.88S HX  82
TAYLORVILLE    NOT AVBL
$$

ILZ033-039-045-046-055>057-062-063-012300-
EAST-CENTRAL ILLINOIS

CITY           SKY/WX    TMP DP  RH WIND       PRES   REMARKS
CHAMPAIGN      MOSUNNY   76  66  71 E8        29.90S
MATTOON        PTSUNNY   77  69  76 NE9       29.87S
$$

ILZ079-100>102-012300-
SOUTHWEST ILLINOIS

CITY           SKY/WX    TMP DP  RH WIND       PRES   REMARKS
ALTON          CLOUDY    81  75  83 SW6       29.86F HX  86
BELLEVILLE     PTSUNNY   83  70  66 W1        29.84F HX  87
CAHOKIA*       PTSUNNY   83  69  62 E8        29.83F HX  86
$$

ILZ064>066-069>071-074>076-080>082-084>086-088>090-092>094-012300-
SOUTH-CENTRAL ILLINOIS

CITY           SKY/WX    TMP DP  RH WIND       PRES   REMARKS
CARBONDALE     PTSUNNY   82  69  64 SW9       29.89R HX  85
MARION         PTSUNNY   82  70  65 SW6       29.90S HX  86
MT. VERNON     PTSUNNY   82  66  57 W5        29.88S HX  85
$$

ILZ067-068-072-073-078-083-087-091-012300-
SOUTHEAST ILLINOIS

CITY           SKY/WX    TMP DP  RH WIND       PRES   REMARKS
LAWRENCEVILLE  CLOUDY    79  71  76 NE7       29.86F HX  82
$$

ABBREVIATIONS USED IN REMARKS
   TC - TEMPERATURE IN CELSIUS
  WCI - WIND CHILL INDEX
   HX - HEAT INDEX
  VSB - VISIBILITY
$$




USA.gov is the U.S. government's official web portal to all federal, state and local government web resources and services.